Location: Newark
(54.2500°N, 9.1833°E)
Time: 18:36:22
(UTC+00:00)

Vanguard 3 - Pass Details

Date: 17 December 2019
Orbit: 507 x 3263 km, 33.4° (Epoch: 24 January)

Event Time Altitude Azimuth Distance (km) Brightness Sun altitude
Rises 06:22:24 0° 214° (SW) 3,384 10.3 -10.1°
Reaches altitude 10° 06:25:54 10° 189° (S) 2,839 10.2 -9.6°
Maximum altitude 06:29:23 14° 159° (SSE) 2,926 10.7 -9.2°
Drops below altitude 10° 06:33:45 10° 131° (SE) 3,757 12.1 -8.6°
Sets 06:39:52 0° 111° (ESE) 5,428 13.6 -7.8°
